| time (UTC) | temp F | wind direction | speed MPH | gust MPH | rain 1hr in | rain 24hr in | rain mn in | humidity % | barometer mb |
| 20260510082004 | 46 | 231 | 7.0 | 9.0 | 0.00 | 0.00 | 0.00 | 59 | 1016.3 |
| 20260510081504 | 45 | 234 | 6.0 | 9.0 | 0.00 | 0.00 | 0.00 | 59 | 1016.3 |
| 20260510081005 | 46 | 233 | 6.0 | 9.0 | 0.00 | 0.00 | 0.00 | 59 | 1016.4 |
| 20260510080004 | 45 | 243 | 8.0 | 12.0 | 0.00 | 0.00 | 0.00 | 60 | 1016.3 |
| 20260510075505 | 45 | 246 | 9.0 | 12.0 | 0.00 | 0.00 | 0.00 | 60 | 1016.3 |
| 20260510075004 | 45 | 240 | 5.0 | 8.0 | 0.00 | 0.00 | 0.00 | 60 | 1016.2 |
| 20260510073504 | 45 | 251 | 6.0 | 9.0 | 0.00 | 0.00 | 0.00 | 62 | 1016.2 |
| 20260510073005 | 46 | 251 | 6.0 | 9.0 | 0.00 | 0.00 | 0.00 | 61 | 1016.1 |
| 20260510072505 | 46 | 237 | 5.0 | 8.0 | 0.00 | 0.00 | 0.00 | 59 | 1016.1 |
| 20260510072004 | 46 | 231 | 6.0 | 8.0 | 0.00 | 0.00 | 0.00 | 59 | 1016.1 |
| 20260510071504 | 46 | 232 | 6.0 | 8.0 | 0.00 | 0.00 | 0.00 | 60 | 1016.1 |
| 20260510071004 | 46 | 235 | 6.0 | 7.0 | 0.00 | 0.00 | 0.00 | 61 | 1016.1 |
| 20260510070004 | 46 | 240 | 5.0 | 8.0 | 0.00 | 0.00 | 0.00 | 60 | 1016.1 |
| 20260510065504 | 46 | 227 | 5.0 | 6.0 | 0.00 | 0.00 | 0.00 | 61 | 1016.1 |
| 20260510065004 | 45 | 209 | 5.0 | 6.0 | 0.00 | 0.00 | 0.00 | 63 | 1016.1 |
| 20260510064504 | 45 | 204 | 4.0 | 7.0 | 0.00 | 0.00 | 0.00 | 63 | 1016.1 |
| 20260510064004 | 45 | 203 | 5.0 | 8.0 | 0.00 | 0.00 | 0.00 | 64 | 1016.1 |
| 20260510063504 | 45 | 202 | 4.0 | 8.0 | 0.00 | 0.00 | 0.00 | 64 | 1016.0 |
| 20260510063005 | 45 | 199 | 6.0 | 8.0 | 0.00 | 0.00 | 0.00 | 64 | 1016.0 |
| 20260510062505 | 45 | 195 | 7.0 | 7.0 | 0.00 | 0.00 | 0.00 | 64 | 1015.9 |
| 20260510062005 | 45 | 194 | 6.0 | 7.0 | 0.00 | 0.00 | 0.00 | 64 | 1016.0 |
| 20260510061504 | 45 | 197 | 5.0 | 6.0 | 0.00 | 0.00 | 0.00 | 64 | 1016.0 |
| 20260510061004 | 46 | 189 | 4.0 | 7.0 | 0.00 | 0.00 | 0.00 | 64 | 1016.0 |
| 20260510060005 | 46 | 194 | 6.0 | 7.0 | 0.00 | 0.00 | 0.00 | 64 | 1015.9 |
| 20260510055504 | 46 | 199 | 6.0 | 7.0 | 0.00 | 0.00 | 0.00 | 64 | 1015.9 |
| 20260510055005 | 47 | 201 | 5.0 | 6.0 | 0.00 | 0.00 | 0.00 | 65 | 1015.9 |
| 20260510054005 | 48 | 178 | 6.0 | 6.0 | 0.00 | 0.00 | 0.00 | 65 | 1015.6 |
| 20260510053504 | 49 | 150 | 5.0 | 5.0 | 0.00 | 0.00 | 0.00 | 65 | 1015.5 |
| 20260510053005 | 49 | 145 | 3.0 | 5.0 | 0.00 | 0.00 | 0.00 | 65 | 1015.5 |
| 20260510052505 | 49 | 139 | 3.0 | 5.0 | 0.00 | 0.00 | 0.00 | 64 | 1015.4 |
| 20260510051504 | 49 | 139 | 5.0 | 5.0 | 0.00 | 0.00 | 0.00 | 66 | 1015.4 |
| 20260510051005 | 48 | 139 | 3.0 | 8.0 | 0.00 | 0.00 | 0.00 | 67 | 1015.5 |
| 20260510050004 | 47 | 141 | 6.0 | 8.0 | 0.00 | 0.00 | 0.00 | 69 | 1015.4 |
| 20260510045504 | 47 | 139 | 6.0 | 9.0 | 0.00 | 0.00 | 0.00 | 67 | 1015.4 |
| 20260510045005 | 48 | 128 | 7.0 | 9.0 | 0.00 | 0.00 | 0.00 | 66 | 1015.4 |
| 20260510044005 | 49 | 116 | 7.0 | 7.0 | 0.00 | 0.00 | 0.00 | 66 | 1015.5 |
| 20260510043505 | 49 | 115 | 7.0 | 7.0 | 0.00 | 0.00 | 0.00 | 66 | 1015.5 |
| 20260510043005 | 49 | 114 | 7.0 | 7.0 | 0.00 | 0.00 | 0.00 | 66 | 1015.5 |
| 20260510042005 | 49 | 108 | 7.0 | 7.0 | 0.00 | 0.00 | 0.00 | 66 | 1015.5 |
| 20260510041504 | 49 | 108 | 6.0 | 7.0 | 0.00 | 0.00 | 0.00 | 66 | 1015.4 |
| 20260510041005 | 49 | 108 | 6.0 | 7.0 | 0.00 | 0.00 | 0.00 | 66 | 1015.3 |
| 20260510040004 | 49 | 113 | 6.0 | 8.0 | 0.00 | 0.00 | 0.00 | 65 | 1015.2 |
| 20260510035004 | 50 | 120 | 7.0 | 9.0 | 0.00 | 0.00 | 0.00 | 64 | 1015.0 |
| 20260510034504 | 50 | 124 | 7.0 | 9.0 | 0.00 | 0.00 | 0.00 | 64 | 1014.9 |
| 20260510034005 | 50 | 129 | 8.0 | 10.0 | 0.00 | 0.00 | 0.00 | 63 | 1014.9 |
| 20260510033505 | 50 | 132 | 9.0 | 10.0 | 0.00 | 0.00 | 0.00 | 63 | 1014.7 |
| 20260510033004 | 51 | 131 | 9.0 | 10.0 | 0.00 | 0.00 | 0.00 | 62 | 1014.7 |
| 20260510032504 | 51 | 129 | 8.0 | 9.0 | 0.00 | 0.00 | 0.00 | 61 | 1014.7 |
| 20260510032004 | 52 | 126 | 8.0 | 9.0 | 0.00 | 0.00 | 0.00 | 60 | 1014.7 |
| 20260510031504 | 53 | 125 | 7.0 | 9.0 | 0.00 | 0.00 | 0.00 | 59 | 1014.6 |
| 20260510031004 | 53 | 121 | 8.0 | 9.0 | 0.00 | 0.00 | 0.00 | 58 | 1014.5 |
| 20260510030004 | 54 | 127 | 8.0 | 10.0 | 0.00 | 0.00 | 0.00 | 57 | 1014.4 |
| 20260510025504 | 55 | 127 | 8.0 | 10.0 | 0.00 | 0.00 | 0.00 | 56 | 1014.3 |
| 20260510025005 | 55 | 124 | 8.0 | 10.0 | 0.00 | 0.00 | 0.00 | 55 | 1014.3 |
| 20260510024504 | 55 | 119 | 8.0 | 9.0 | 0.00 | 0.00 | 0.00 | 54 | 1014.3 |
| 20260510023504 | 56 | 107 | 7.0 | 10.0 | 0.00 | 0.00 | 0.00 | 52 | 1014.2 |
| 20260510023004 | 57 | 102 | 7.0 | 10.0 | 0.00 | 0.00 | 0.00 | 51 | 1014.1 |
| 20260510022504 | 57 | 97 | 7.0 | 10.0 | 0.00 | 0.00 | 0.00 | 50 | 1014.0 |
| 20260510021505 | 57 | 85 | 7.0 | 12.0 | 0.00 | 0.00 | 0.00 | 49 | 1013.9 |
| 20260510021004 | 58 | 85 | 8.0 | 12.0 | 0.00 | 0.00 | 0.00 | 49 | 1013.8 |
| 20260510020004 | 58 | 77 | 8.0 | 12.0 | 0.00 | 0.00 | 0.00 | 47 | 1013.8 |
| 20260510015504 | 58 | 75 | 6.0 | 10.0 | 0.00 | 0.00 | 0.00 | 46 | 1013.9 |
| 20260510015004 | 59 | 57 | 6.0 | 10.0 | 0.00 | 0.00 | 0.00 | 44 | 1013.9 |
| 20260510014504 | 59 | 60 | 5.0 | 10.0 | 0.00 | 0.00 | 0.00 | 42 | 1013.8 |
| 20260510014004 | 59 | 24 | 5.0 | 10.0 | 0.00 | 0.00 | 0.00 | 40 | 1013.8 |
| 20260510013504 | 60 | 18 | 3.0 | 6.0 | 0.00 | 0.00 | 0.00 | 38 | 1013.7 |
| 20260510013004 | 60 | 28 | 3.0 | 9.0 | 0.00 | 0.00 | 0.00 | 38 | 1013.6 |
| 20260510012505 | 60 | 31 | 5.0 | 9.0 | 0.00 | 0.00 | 0.00 | 37 | 1013.4 |
| 20260510012005 | 60 | 24 | 4.0 | 12.0 | 0.00 | 0.00 | 0.00 | 36 | 1013.3 |
| 20260510011504 | 60 | 26 | 6.0 | 12.0 | 0.00 | 0.00 | 0.00 | 36 | 1013.2 |
| 20260510011004 | 61 | 340 | 7.0 | 10.0 | 0.00 | 0.00 | 0.00 | 35 | 1013.2 |
| 20260510010005 | 61 | 291 | 6.0 | 10.0 | 0.00 | 0.00 | 0.00 | 33 | 1013.2 |
| 20260510005504 | 61 | 289 | 6.0 | 9.0 | 0.00 | 0.00 | 0.00 | 32 | 1013.2 |
| 20260510005004 | 61 | 285 | 5.0 | 12.0 | 0.00 | 0.00 | 0.00 | 33 | 1013.2 |
| 20260510004504 | 62 | 302 | 7.0 | 12.0 | 0.00 | 0.00 | 0.00 | 31 | 1013.3 |
| 20260510004004 | 62 | 294 | 8.0 | 12.0 | 0.00 | 0.00 | 0.00 | 31 | 1013.2 |
| 20260510003504 | 63 | 304 | 4.0 | 10.0 | 0.00 | 0.00 | 0.00 | 31 | 1013.2 |
| 20260510002504 | 64 | 312 | 7.0 | 12.0 | 0.00 | 0.00 | 0.00 | 32 | 1013.0 |
| 20260510002004 | 64 | 246 | 7.0 | 12.0 | 0.00 | 0.00 | 0.00 | 30 | 1013.0 |
| 20260510001004 | 63 | 317 | 3.0 | 13.0 | 0.00 | 0.00 | 0.00 | 31 | 1013.0 |
| 20260510000004 | 63 | 252 | 9.0 | 15.0 | 0.00 | 0.00 | 0.00 | 32 | 1013.0 |
| 20260509235504 | 63 | 284 | 7.0 | 13.0 | 0.00 | 0.00 | 0.00 | 31 | 1013.0 |
| 20260509235004 | 63 | 271 | 7.0 | 12.0 | 0.00 | 0.00 | 0.00 | 32 | 1013.0 |
| 20260509234504 | 63 | 302 | 7.0 | 12.0 | 0.00 | 0.00 | 0.00 | 33 | 1013.0 |
| 20260509234005 | 62 | 296 | 6.0 | 12.0 | 0.00 | 0.00 | 0.00 | 33 | 1013.0 |
| 20260509233505 | 62 | 313 | 5.0 | 12.0 | 0.00 | 0.00 | 0.00 | 32 | 1013.1 |
| 20260509233005 | 62 | 294 | 7.0 | 12.0 | 0.00 | 0.00 | 0.00 | 34 | 1013.1 |
| 20260509231505 | 62 | 297 | 7.0 | 12.0 | 0.00 | 0.00 | 0.00 | 33 | 1013.0 |
| 20260509231005 | 62 | 304 | 6.0 | 12.0 | 0.00 | 0.00 | 0.00 | 33 | 1013.1 |
| 20260509230005 | 61 | 280 | 6.0 | 12.0 | 0.00 | 0.00 | 0.00 | 33 | 1013.0 |
| 20260509225505 | 61 | 247 | 8.0 | 14.0 | 0.00 | 0.00 | 0.00 | 33 | 1013.0 |
| 20260509224505 | 61 | 273 | 9.0 | 14.0 | 0.00 | 0.00 | 0.00 | 34 | 1013.1 |
| 20260509223505 | 62 | 302 | 8.0 | 14.0 | 0.00 | 0.00 | 0.00 | 33 | 1013.1 |
| 20260509223006 | 62 | 299 | 9.0 | 14.0 | 0.00 | 0.00 | 0.00 | 33 | 1013.1 |
| 20260509222505 | 61 | 322 | 7.0 | 14.0 | 0.00 | 0.00 | 0.00 | 35 | 1013.1 |
| 20260509222005 | 61 | 316 | 6.0 | 13.0 | 0.00 | 0.00 | 0.00 | 35 | 1013.1 |
| 20260509221006 | 63 | 321 | 10.0 | 18.0 | 0.00 | 0.00 | 0.00 | 34 | 1013.1 |
| 20260509215505 | 63 | 269 | 10.0 | 23.0 | 0.00 | 0.00 | 0.00 | 32 | 1012.8 |
| 20260509215005 | 63 | 304 | 14.0 | 23.0 | 0.00 | 0.00 | 0.00 | 31 | 1012.8 |
| 20260509214505 | 63 | 307 | 12.0 | 20.0 | 0.00 | 0.00 | 0.00 | 30 | 1012.8 |
| 20260509214005 | 63 | 290 | 15.0 | 20.0 | 0.00 | 0.00 | 0.00 | 33 | 1012.7 |
| 20260509213006 | 62 | 292 | 16.0 | 22.0 | 0.00 | 0.00 | 0.00 | 32 | 1012.7 |
| 20260509212505 | 63 | 291 | 13.0 | 20.0 | 0.00 | 0.00 | 0.00 | 32 | 1012.7 |
| 20260509212005 | 62 | 287 | 13.0 | 25.0 | 0.00 | 0.00 | 0.00 | 32 | 1012.7 |
| 20260509211005 | 61 | 297 | 10.0 | 20.0 | 0.00 | 0.00 | 0.00 | 34 | 1012.7 |
| 20260509210005 | 60 | 273 | 13.0 | 20.0 | 0.00 | 0.00 | 0.00 | 34 | 1012.6 |
| 20260509205005 | 61 | 302 | 12.0 | 17.0 | 0.00 | 0.00 | 0.00 | 33 | 1012.6 |
| 20260509204505 | 61 | 310 | 11.0 | 20.0 | 0.00 | 0.00 | 0.00 | 33 | 1012.6 |
| 20260509204005 | 61 | 273 | 11.0 | 20.0 | 0.00 | 0.00 | 0.00 | 34 | 1012.6 |
| 20260509203505 | 61 | 282 | 13.0 | 24.0 | 0.00 | 0.00 | 0.00 | 33 | 1012.7 |
| 20260509203005 | 60 | 296 | 12.0 | 24.0 | 0.00 | 0.00 | 0.00 | 35 | 1012.7 |
| 20260509202505 | 61 | 283 | 13.0 | 21.0 | 0.00 | 0.00 | 0.00 | 34 | 1012.7 |
| 20260509201505 | 60 | 299 | 12.0 | 18.0 | 0.00 | 0.00 | 0.00 | 35 | 1012.6 |
| 20260509201005 | 60 | 291 | 10.0 | 18.0 | 0.00 | 0.00 | 0.00 | 33 | 1012.7 |
| 20260509200005 | 61 | 304 | 12.0 | 17.0 | 0.00 | 0.00 | 0.00 | 35 | 1012.5 |
| 20260509195505 | 60 | 305 | 12.0 | 17.0 | 0.00 | 0.00 | 0.00 | 36 | 1012.5 |
| 20260509195005 | 60 | 314 | 12.0 | 20.0 | 0.00 | 0.00 | 0.00 | 35 | 1012.5 |
| 20260509194505 | 59 | 311 | 9.0 | 22.0 | 0.00 | 0.00 | 0.00 | 37 | 1012.5 |
| 20260509194005 | 59 | 320 | 11.0 | 22.0 | 0.00 | 0.00 | 0.00 | 37 | 1012.6 |
| 20260509193505 | 59 | 315 | 13.0 | 20.0 | 0.00 | 0.00 | 0.00 | 36 | 1012.5 |
| 20260509193005 | 59 | 312 | 12.0 | 18.0 | 0.00 | 0.00 | 0.00 | 36 | 1012.4 |
| 20260509192505 | 59 | 305 | 13.0 | 18.0 | 0.00 | 0.00 | 0.00 | 36 | 1012.4 |
| 20260509192005 | 59 | 310 | 15.0 | 18.0 | 0.00 | 0.00 | 0.00 | 36 | 1012.3 |
| 20260509191505 | 59 | 290 | 11.0 | 22.0 | 0.00 | 0.00 | 0.00 | 36 | 1012.3 |
| 20260509190006 | 60 | 285 | 15.0 | 21.0 | 0.00 | 0.00 | 0.00 | 34 | 1012.2 |
| 20260509185505 | 60 | 309 | 11.0 | 20.0 | 0.00 | 0.00 | 0.00 | 33 | 1012.1 |
| 20260509185005 | 61 | 281 | 14.0 | 21.0 | 0.00 | 0.00 | 0.00 | 34 | 1012.1 |
| 20260509184505 | 60 | 275 | 16.0 | 24.0 | 0.00 | 0.00 | 0.00 | 31 | 1012.0 |
| 20260509183505 | 60 | 286 | 20.0 | 24.0 | 0.00 | 0.00 | 0.00 | 31 | 1012.0 |
| 20260509183006 | 61 | 281 | 16.0 | 24.0 | 0.00 | 0.00 | 0.00 | 33 | 1011.9 |
| 20260509182504 | 60 | 285 | 13.0 | 25.0 | 0.00 | 0.00 | 0.00 | 34 | 1011.9 |
| 20260509182005 | 60 | 277 | 18.0 | 26.0 | 0.00 | 0.00 | 0.00 | 34 | 1011.9 |
| 20260509181505 | 60 | 278 | 14.0 | 26.0 | 0.00 | 0.00 | 0.00 | 35 | 1011.9 |
| 20260509181006 | 60 | 298 | 13.0 | 26.0 | 0.00 | 0.00 | 0.00 | 33 | 1011.9 |
| 20260509175505 | 59 | 286 | 11.0 | 26.0 | 0.00 | 0.00 | 0.00 | 33 | 1011.9 |
| 20260509175005 | 60 | 275 | 17.0 | 26.0 | 0.00 | 0.00 | 0.00 | 32 | 1012.1 |
| 20260509174505 | 59 | 292 | 12.0 | 24.0 | 0.00 | 0.00 | 0.00 | 35 | 1012.0 |
| 20260509174005 | 59 | 287 | 16.0 | 24.0 | 0.00 | 0.00 | 0.00 | 33 | 1012.0 |
| 20260509173505 | 59 | 289 | 16.0 | 20.0 | 0.00 | 0.00 | 0.00 | 34 | 1012.0 |
| 20260509173005 | 59 | 265 | 12.0 | 20.0 | 0.00 | 0.00 | 0.00 | 33 | 1012.0 |
| 20260509172005 | 58 | 310 | 12.0 | 20.0 | 0.00 | 0.00 | 0.00 | 36 | 1011.9 |
| 20260509171505 | 58 | 295 | 14.0 | 20.0 | 0.00 | 0.00 | 0.00 | 36 | 1012.0 |
| 20260509171005 | 58 | 285 | 13.0 | 20.0 | 0.00 | 0.00 | 0.00 | 35 | 1012.0 |
| 20260509170005 | 57 | 282 | 12.0 | 20.0 | 0.00 | 0.00 | 0.00 | 36 | 1012.0 |
| 20260509165505 | 58 | 287 | 13.0 | 20.0 | 0.00 | 0.00 | 0.00 | 35 | 1012.1 |
| 20260509164505 | 57 | 272 | 11.0 | 21.0 | 0.00 | 0.00 | 0.00 | 36 | 1012.0 |
| 20260509164005 | 57 | 270 | 13.0 | 21.0 | 0.00 | 0.00 | 0.00 | 35 | 1012.1 |
| 20260509163505 | 57 | 282 | 13.0 | 22.0 | 0.00 | 0.00 | 0.00 | 36 | 1012.1 |
| 20260509163005 | 57 | 277 | 13.0 | 22.0 | 0.00 | 0.00 | 0.00 | 37 | 1012.1 |
| 20260509162505 | 57 | 257 | 14.0 | 22.0 | 0.00 | 0.00 | 0.00 | 36 | 1011.9 |
| 20260509161505 | 56 | 292 | 12.0 | 20.0 | 0.00 | 0.00 | 0.00 | 38 | 1012.0 |
| 20260509161005 | 56 | 286 | 13.0 | 24.0 | 0.00 | 0.00 | 0.00 | 37 | 1012.0 |
| 20260509160005 | 56 | 274 | 16.0 | 24.0 | 0.00 | 0.00 | 0.00 | 37 | 1011.9 |
| 20260509155005 | 55 | 279 | 15.0 | 24.0 | 0.00 | 0.00 | 0.00 | 38 | 1011.8 |
| 20260509154504 | 55 | 291 | 15.0 | 24.0 | 0.00 | 0.00 | 0.00 | 37 | 1011.7 |
| 20260509154005 | 55 | 293 | 17.0 | 26.0 | 0.00 | 0.00 | 0.00 | 38 | 1011.7 |
| 20260509153005 | 55 | 287 | 20.0 | 30.0 | 0.00 | 0.00 | 0.00 | 38 | 1011.8 |
| 20260509152504 | 55 | 279 | 20.0 | 30.0 | 0.00 | 0.00 | 0.00 | 39 | 1011.7 |
| 20260509152005 | 54 | 263 | 20.0 | 26.0 | 0.00 | 0.00 | 0.00 | 39 | 1011.6 |
| 20260509151504 | 54 | 273 | 20.0 | 26.0 | 0.00 | 0.00 | 0.00 | 39 | 1011.5 |
| 20260509151005 | 54 | 269 | 17.0 | 28.0 | 0.00 | 0.00 | 0.00 | 39 | 1011.6 |
| 20260509150004 | 53 | 260 | 20.0 | 30.0 | 0.00 | 0.00 | 0.00 | 38 | 1011.4 |
| 20260509145505 | 53 | 255 | 21.0 | 30.0 | 0.00 | 0.00 | 0.00 | 38 | 1011.4 |
| 20260509144505 | 53 | 258 | 18.0 | 26.0 | 0.00 | 0.00 | 0.00 | 39 | 1011.3 |
| 20260509144005 | 53 | 252 | 14.0 | 25.0 | 0.00 | 0.00 | 0.00 | 39 | 1011.4 |
| 20260509143504 | 53 | 272 | 16.0 | 23.0 | 0.00 | 0.00 | 0.00 | 38 | 1011.5 |
| 20260509143005 | 53 | 269 | 16.0 | 20.0 | 0.00 | 0.00 | 0.00 | 38 | 1011.5 |
| 20260509142504 | 52 | 276 | 13.0 | 22.0 | 0.00 | 0.00 | 0.00 | 39 | 1011.4 |
| 20260509142005 | 52 | 272 | 14.0 | 22.0 | 0.00 | 0.00 | 0.00 | 38 | 1011.4 |
| 20260509141504 | 52 | 257 | 14.0 | 20.0 | 0.00 | 0.00 | 0.00 | 39 | 1011.3 |
| 20260509141005 | 52 | 263 | 13.0 | 20.0 | 0.00 | 0.00 | 0.00 | 39 | 1011.2 |
| 20260509140006 | 51 | 265 | 16.0 | 20.0 | 0.00 | 0.00 | 0.00 | 40 | 1011.2 |
| 20260509135005 | 51 | 263 | 13.0 | 25.0 | 0.00 | 0.00 | 0.00 | 39 | 1011.1 |
| 20260509134504 | 51 | 277 | 14.0 | 26.0 | 0.00 | 0.00 | 0.00 | 38 | 1011.1 |
| 20260509134004 | 51 | 264 | 18.0 | 26.0 | 0.00 | 0.00 | 0.00 | 38 | 1010.9 |
| 20260509133505 | 51 | 255 | 15.0 | 24.0 | 0.00 | 0.00 | 0.00 | 38 | 1010.9 |
| 20260509133005 | 51 | 251 | 17.0 | 24.0 | 0.00 | 0.00 | 0.00 | 37 | 1010.7 |
| 20260509132505 | 51 | 262 | 17.0 | 25.0 | 0.00 | 0.00 | 0.00 | 38 | 1010.7 |
| 20260509132005 | 50 | 256 | 15.0 | 25.0 | 0.00 | 0.00 | 0.00 | 38 | 1010.7 |
| 20260509131504 | 50 | 251 | 17.0 | 25.0 | 0.00 | 0.00 | 0.00 | 37 | 1010.6 |
| 20260509131005 | 50 | 252 | 14.0 | 22.0 | 0.00 | 0.00 | 0.00 | 39 | 1010.6 |
| 20260509130005 | 49 | 247 | 12.0 | 18.0 | 0.00 | 0.00 | 0.00 | 39 | 1010.7 |
| 20260509125505 | 49 | 246 | 13.0 | 18.0 | 0.00 | 0.00 | 0.00 | 40 | 1010.7 |
| 20260509125005 | 48 | 255 | 12.0 | 18.0 | 0.00 | 0.00 | 0.00 | 40 | 1010.7 |
| 20260509124505 | 48 | 250 | 12.0 | 16.0 | 0.00 | 0.00 | 0.00 | 41 | 1010.7 |
| 20260509124005 | 48 | 250 | 12.0 | 15.0 | 0.00 | 0.00 | 0.00 | 41 | 1010.7 |
| 20260509123504 | 48 | 251 | 10.0 | 15.0 | 0.00 | 0.00 | 0.00 | 42 | 1010.6 |
| 20260509122504 | 48 | 245 | 10.0 | 16.0 | 0.00 | 0.00 | 0.00 | 42 | 1010.5 |
| 20260509121504 | 48 | 246 | 13.0 | 18.0 | 0.00 | 0.00 | 0.00 | 41 | 1010.2 |
| 20260509121005 | 48 | 254 | 13.0 | 21.0 | 0.00 | 0.00 | 0.00 | 40 | 1010.2 |
| 20260509120005 | 49 | 250 | 13.0 | 18.0 | 0.00 | 0.00 | 0.00 | 40 | 1010.0 |
| 20260509115504 | 49 | 253 | 12.0 | 18.0 | 0.00 | 0.00 | 0.00 | 41 | 1010.0 |
| 20260509115005 | 49 | 240 | 10.0 | 18.0 | 0.00 | 0.00 | 0.00 | 40 | 1010.0 |
| 20260509114505 | 49 | 250 | 13.0 | 18.0 | 0.00 | 0.00 | 0.00 | 40 | 1009.9 |
| 20260509114005 | 49 | 238 | 10.0 | 18.0 | 0.00 | 0.00 | 0.00 | 40 | 1009.8 |
| 20260509113505 | 50 | 249 | 13.0 | 20.0 | 0.00 | 0.00 | 0.00 | 40 | 1009.8 |
| 20260509113005 | 50 | 262 | 12.0 | 20.0 | 0.00 | 0.00 | 0.00 | 39 | 1009.8 |
| 20260509112005 | 50 | 266 | 15.0 | 20.0 | 0.00 | 0.00 | 0.00 | 39 | 1009.7 |
| 20260509111504 | 50 | 254 | 15.0 | 20.0 | 0.00 | 0.00 | 0.00 | 40 | 1009.7 |
| 20260509111005 | 50 | 249 | 16.0 | 20.0 | 0.00 | 0.00 | 0.00 | 41 | 1009.6 |
| 20260509105505 | 50 | 257 | 13.0 | 16.0 | 0.00 | 0.00 | 0.00 | 41 | 1009.4 |
| 20260509105004 | 51 | 257 | 9.0 | 16.0 | 0.00 | 0.00 | 0.00 | 40 | 1009.3 |
| 20260509104504 | 51 | 273 | 13.0 | 16.0 | 0.00 | 0.00 | 0.00 | 40 | 1009.3 |
| 20260509104005 | 51 | 271 | 10.0 | 14.0 | 0.00 | 0.00 | 0.00 | 40 | 1009.3 |
| 20260509103504 | 52 | 302 | 8.0 | 14.0 | 0.00 | 0.00 | 0.00 | 38 | 1009.2 |
| 20260509103004 | 52 | 281 | 9.0 | 18.0 | 0.00 | 0.00 | 0.00 | 37 | 1009.2 |
| 20260509102505 | 52 | 291 | 10.0 | 18.0 | 0.00 | 0.00 | 0.00 | 38 | 1009.1 |
| 20260509102005 | 52 | 279 | 12.0 | 18.0 | 0.00 | 0.00 | 0.00 | 39 | 1009.1 |
| 20260509101005 | 52 | 294 | 11.0 | 17.0 | 0.00 | 0.00 | 0.00 | 41 | 1008.8 |
| 20260509100005 | 52 | 267 | 12.0 | 16.0 | 0.00 | 0.00 | 0.00 | 43 | 1008.8 |
| 20260509095505 | 52 | 267 | 13.0 | 18.0 | 0.00 | 0.00 | 0.00 | 43 | 1008.6 |
| 20260509095005 | 52 | 264 | 12.0 | 18.0 | 0.00 | 0.00 | 0.00 | 45 | 1008.6 |
| 20260509094004 | 52 | 278 | 13.0 | 18.0 | 0.00 | 0.00 | 0.00 | 45 | 1008.4 |
| 20260509093505 | 53 | 253 | 14.0 | 22.0 | 0.00 | 0.00 | 0.00 | 46 | 1008.3 |
| 20260509092505 | 53 | 273 | 14.0 | 20.0 | 0.00 | 0.00 | 0.00 | 46 | 1008.1 |
| 20260509092004 | 53 | 276 | 13.0 | 20.0 | 0.00 | 0.00 | 0.00 | 48 | 1008.0 |
| 20260509091504 | 53 | 256 | 14.0 | 20.0 | 0.00 | 0.00 | 0.00 | 50 | 1008.0 |
| 20260509090005 | 53 | 265 | 13.0 | 20.0 | 0.00 | 0.00 | 0.00 | 52 | 1007.8 |
| 20260509085504 | 53 | 263 | 14.0 | 20.0 | 0.00 | 0.00 | 0.00 | 52 | 1007.7 |
| 20260509084504 | 53 | 267 | 14.0 | 20.0 | 0.00 | 0.00 | 0.00 | 53 | 1007.6 |
| 20260509083505 | 53 | 247 | 14.0 | 22.0 | 0.00 | 0.00 | 0.00 | 52 | 1007.5 |
| 20260509083004 | 54 | 262 | 13.0 | 20.0 | 0.00 | 0.00 | 0.00 | 52 | 1007.5 |
| 20260509082505 | 54 | 262 | 13.0 | 20.0 | 0.00 | 0.00 | 0.00 | 52 | 1007.4 |